| time (UTC) | temp F | wind direction | speed MPH | gust MPH | rain 1hr in | rain 24hr in | rain mn in | humidity % | barometer mb |
| 20260502163522 | 57 | 342 | 1.0 | 2.0 | 0.00 | 0.00 | 0.00 | 79 | 1017.0 |
| 20260502162521 | 57 | 295 | 0.0 | 1.0 | 0.00 | 0.00 | 0.00 | 79 | 1017.1 |
| 20260502161519 | 57 | 307 | 0.0 | 1.0 | 0.00 | 0.00 | 0.00 | 78 | 1017.0 |
| 20260502160537 | 57 | 169 | 0.0 | 1.0 | 0.00 | 0.00 | 0.00 | 81 | 1017.2 |
| 20260502151608 | 53 | 175 | 0.0 | 1.0 | 0.00 | 0.00 | 0.00 | 87 | 1017.2 |
| 20260502150607 | 52 | 0.0 | 0.0 | 0.00 | 0.00 | 0.00 | 88 | 1017.1 | |
| 20260502130546 | 50 | 0.0 | 0.0 | 0.00 | 0.00 | 0.00 | 87 | 1016.9 | |
| 20260502123601 | 50 | 0.0 | 0.0 | 0.00 | 0.00 | 0.00 | 87 | 1017.2 | |
| 20260502122540 | 50 | 0.0 | 0.0 | 0.00 | 0.00 | 0.00 | 87 | 1017.0 | |
| 20260502121537 | 50 | 0.0 | 0.0 | 0.00 | 0.00 | 0.00 | 87 | 1017.0 | |
| 20260502120536 | 50 | 0.0 | 0.0 | 0.00 | 0.00 | 0.00 | 87 | 1017.0 | |
| 20260502115538 | 50 | 180 | 0.0 | 1.0 | 0.00 | 0.00 | 0.00 | 87 | 1017.3 |
| 20260502114532 | 50 | 0.0 | 0.0 | 0.00 | 0.00 | 0.00 | 86 | 1017.3 | |
| 20260502113551 | 50 | 0.0 | 0.0 | 0.00 | 0.00 | 0.00 | 87 | 1017.3 | |
| 20260502112529 | 50 | 277 | 1.0 | 2.0 | 0.00 | 0.00 | 0.00 | 88 | 1016.9 |
| 20260502111527 | 50 | 172 | 1.0 | 3.0 | 0.00 | 0.00 | 0.00 | 87 | 1017.2 |
| 20260502110545 | 50 | 274 | 0.0 | 2.0 | 0.00 | 0.00 | 0.00 | 87 | 1017.1 |
| 20260502105523 | 50 | 237 | 1.0 | 3.0 | 0.00 | 0.00 | 0.00 | 86 | 1017.4 |
| 20260502104521 | 50 | 246 | 2.0 | 4.0 | 0.00 | 0.00 | 0.00 | 86 | 1017.5 |
| 20260502103520 | 50 | 233 | 2.0 | 4.0 | 0.00 | 0.00 | 0.00 | 86 | 1017.7 |
| 20260502102518 | 50 | 226 | 2.0 | 4.0 | 0.00 | 0.00 | 0.00 | 85 | 1017.7 |
| 20260502101517 | 50 | 229 | 1.0 | 3.0 | 0.00 | 0.00 | 0.00 | 84 | 1017.5 |
| 20260502100618 | 50 | 260 | 0.0 | 1.0 | 0.00 | 0.00 | 0.00 | 84 | 1016.9 |
| 20260502090645 | 52 | 275 | 0.0 | 2.0 | 0.00 | 0.00 | 0.00 | 83 | 1016.8 |
| 20260502070605 | 54 | 255 | 1.0 | 2.0 | 0.00 | 0.00 | 0.00 | 76 | 1016.9 |
| 20260502065542 | 55 | 246 | 2.0 | 4.0 | 0.00 | 0.00 | 0.00 | 76 | 1016.7 |
| 20260502064540 | 55 | 241 | 3.0 | 4.0 | 0.00 | 0.00 | 0.00 | 75 | 1016.8 |
| 20260502063619 | 56 | 235 | 2.0 | 3.0 | 0.00 | 0.00 | 0.00 | 74 | 1016.8 |
| 20260502062557 | 56 | 236 | 4.0 | 6.0 | 0.00 | 0.00 | 0.00 | 73 | 1016.7 |
| 20260502061536 | 57 | 230 | 3.0 | 7.0 | 0.00 | 0.00 | 0.00 | 73 | 1016.7 |
| 20260502060534 | 57 | 242 | 3.0 | 6.0 | 0.00 | 0.00 | 0.00 | 73 | 1016.5 |
| 20260502055532 | 58 | 230 | 3.0 | 7.0 | 0.00 | 0.00 | 0.00 | 72 | 1016.4 |
| 20260502054530 | 59 | 244 | 4.0 | 10.0 | 0.00 | 0.00 | 0.00 | 70 | 1016.4 |
| 20260502053529 | 59 | 234 | 3.0 | 10.0 | 0.00 | 0.00 | 0.00 | 68 | 1016.4 |
| 20260502052530 | 60 | 246 | 3.0 | 6.0 | 0.00 | 0.00 | 0.00 | 67 | 1016.2 |
| 20260502051525 | 61 | 244 | 1.0 | 4.0 | 0.00 | 0.00 | 0.00 | 64 | 1016.1 |
| 20260502050523 | 61 | 0.0 | 0.0 | 0.00 | 0.00 | 0.00 | 63 | 1016.1 | |
| 20260502045522 | 61 | 266 | 1.0 | 3.0 | 0.00 | 0.00 | 0.00 | 63 | 1016.1 |
| 20260502044520 | 62 | 268 | 1.0 | 3.0 | 0.00 | 0.00 | 0.00 | 61 | 1015.8 |
| 20260502043518 | 62 | 245 | 2.0 | 6.0 | 0.00 | 0.00 | 0.00 | 60 | 1015.8 |
| 20260502042537 | 62 | 281 | 0.0 | 1.0 | 0.00 | 0.00 | 0.00 | 60 | 1015.6 |
| 20260502041615 | 62 | 283 | 0.0 | 1.0 | 0.00 | 0.00 | 0.00 | 60 | 1015.6 |
| 20260502040613 | 62 | 274 | 0.0 | 1.0 | 0.00 | 0.00 | 0.00 | 60 | 1015.5 |
| 20260502035631 | 62 | 311 | 0.0 | 1.0 | 0.00 | 0.00 | 0.00 | 60 | 1015.4 |
| 20260502034610 | 62 | 347 | 1.0 | 3.0 | 0.00 | 0.00 | 0.00 | 60 | 1015.2 |
| 20260502033608 | 62 | 297 | 0.0 | 1.0 | 0.00 | 0.00 | 0.00 | 60 | 1015.2 |
| 20260502032607 | 63 | 331 | 2.0 | 7.0 | 0.00 | 0.00 | 0.00 | 59 | 1015.1 |
| 20260502031625 | 63 | 342 | 1.0 | 3.0 | 0.00 | 0.00 | 0.00 | 59 | 1015.0 |
| 20260502030603 | 64 | 316 | 1.0 | 4.0 | 0.00 | 0.00 | 0.00 | 58 | 1014.8 |
| 20260502025622 | 64 | 328 | 1.0 | 4.0 | 0.00 | 0.00 | 0.00 | 56 | 1014.7 |
| 20260502024600 | 65 | 336 | 1.0 | 3.0 | 0.00 | 0.00 | 0.00 | 55 | 1014.6 |
| 20260502023557 | 65 | 288 | 0.0 | 2.0 | 0.00 | 0.00 | 0.00 | 55 | 1014.6 |
| 20260502022556 | 66 | 334 | 2.0 | 6.0 | 0.00 | 0.00 | 0.00 | 54 | 1014.5 |
| 20260502021555 | 66 | 333 | 1.0 | 3.0 | 0.00 | 0.00 | 0.00 | 53 | 1014.5 |
| 20260502020613 | 67 | 348 | 2.0 | 6.0 | 0.00 | 0.00 | 0.00 | 53 | 1014.5 |
| 20260502015551 | 68 | 349 | 3.0 | 8.0 | 0.00 | 0.00 | 0.00 | 52 | 1014.4 |
| 20260502014549 | 68 | 1 | 3.0 | 8.0 | 0.00 | 0.00 | 0.00 | 52 | 1014.3 |
| 20260502013548 | 68 | 337 | 4.0 | 7.0 | 0.00 | 0.00 | 0.00 | 51 | 1014.4 |
| 20260502012546 | 69 | 359 | 3.0 | 8.0 | 0.00 | 0.00 | 0.00 | 50 | 1014.4 |
| 20260502011544 | 70 | 350 | 3.0 | 6.0 | 0.00 | 0.00 | 0.00 | 51 | 1014.4 |
| 20260502010542 | 70 | 5 | 4.0 | 8.0 | 0.00 | 0.00 | 0.00 | 51 | 1014.4 |
| 20260502005540 | 71 | 336 | 3.0 | 7.0 | 0.00 | 0.00 | 0.00 | 51 | 1014.4 |
| 20260502004539 | 71 | 332 | 3.0 | 7.0 | 0.00 | 0.00 | 0.00 | 51 | 1014.4 |
| 20260502003536 | 71 | 0 | 3.0 | 7.0 | 0.00 | 0.00 | 0.00 | 50 | 1014.3 |
| 20260502002535 | 71 | 3 | 4.0 | 6.0 | 0.00 | 0.00 | 0.00 | 49 | 1014.4 |
| 20260502001533 | 72 | 348 | 3.0 | 6.0 | 0.00 | 0.00 | 0.00 | 49 | 1014.4 |
| 20260502000531 | 72 | 338 | 3.0 | 7.0 | 0.00 | 0.00 | 0.00 | 49 | 1014.3 |
| 20260501235530 | 72 | 357 | 3.0 | 7.0 | 0.00 | 0.00 | 0.00 | 48 | 1014.4 |
| 20260501234528 | 72 | 355 | 4.0 | 7.0 | 0.00 | 0.00 | 0.00 | 48 | 1014.3 |
| 20260501233546 | 73 | 11 | 3.0 | 4.0 | 0.00 | 0.00 | 0.00 | 47 | 1014.4 |
| 20260501232545 | 73 | 347 | 1.0 | 4.0 | 0.00 | 0.00 | 0.00 | 48 | 1014.4 |
| 20260501231523 | 73 | 11 | 3.0 | 7.0 | 0.00 | 0.00 | 0.00 | 46 | 1014.4 |
| 20260501230521 | 73 | 30 | 1.0 | 4.0 | 0.00 | 0.00 | 0.00 | 48 | 1014.7 |
| 20260501225519 | 73 | 27 | 1.0 | 3.0 | 0.00 | 0.00 | 0.00 | 47 | 1014.7 |
| 20260501224518 | 73 | 353 | 3.0 | 6.0 | 0.00 | 0.00 | 0.00 | 47 | 1014.8 |
| 20260501223516 | 73 | 13 | 2.0 | 3.0 | 0.00 | 0.00 | 0.00 | 49 | 1015.0 |
| 20260501222614 | 72 | 357 | 1.0 | 4.0 | 0.00 | 0.00 | 0.00 | 47 | 1015.1 |
| 20260501221613 | 72 | 10 | 2.0 | 4.0 | 0.00 | 0.00 | 0.00 | 48 | 1015.2 |
| 20260501220611 | 72 | 17 | 2.0 | 3.0 | 0.00 | 0.00 | 0.00 | 48 | 1015.3 |
| 20260501215611 | 71 | 353 | 1.0 | 2.0 | 0.00 | 0.00 | 0.00 | 49 | 1015.4 |
| 20260501214608 | 71 | 333 | 2.0 | 3.0 | 0.00 | 0.00 | 0.00 | 49 | 1015.5 |
| 20260501213606 | 71 | 8 | 2.0 | 4.0 | 0.00 | 0.00 | 0.00 | 49 | 1015.5 |
| 20260501212624 | 70 | 5 | 2.0 | 6.0 | 0.00 | 0.00 | 0.00 | 49 | 1015.6 |
| 20260501211602 | 70 | 4 | 2.0 | 7.0 | 0.00 | 0.00 | 0.00 | 49 | 1015.6 |
| 20260501210600 | 70 | 28 | 3.0 | 6.0 | 0.00 | 0.00 | 0.00 | 49 | 1015.7 |
| 20260501205558 | 69 | 20 | 2.0 | 6.0 | 0.00 | 0.00 | 0.00 | 49 | 1015.8 |
| 20260501204557 | 69 | 6 | 4.0 | 8.0 | 0.00 | 0.00 | 0.00 | 49 | 1015.7 |
| 20260501203555 | 68 | 8 | 1.0 | 4.0 | 0.00 | 0.00 | 0.00 | 50 | 1015.7 |
| 20260501202553 | 68 | 337 | 3.0 | 7.0 | 0.00 | 0.00 | 0.00 | 49 | 1016.0 |
| 20260501201552 | 67 | 346 | 4.0 | 7.0 | 0.00 | 0.00 | 0.00 | 51 | 1016.0 |
| 20260501200550 | 68 | 4 | 4.0 | 9.0 | 0.00 | 0.00 | 0.00 | 52 | 1016.1 |
| 20260501195628 | 67 | 1 | 4.0 | 7.0 | 0.00 | 0.00 | 0.00 | 53 | 1016.0 |
| 20260501194546 | 67 | 16 | 4.0 | 7.0 | 0.00 | 0.00 | 0.00 | 54 | 1016.0 |
| 20260501193544 | 66 | 352 | 4.0 | 8.0 | 0.00 | 0.00 | 0.00 | 52 | 1016.2 |
| 20260501192543 | 66 | 16 | 3.0 | 7.0 | 0.00 | 0.00 | 0.00 | 54 | 1016.2 |
| 20260501191541 | 66 | 9 | 3.0 | 6.0 | 0.00 | 0.00 | 0.00 | 55 | 1016.3 |
| 20260501190540 | 66 | 0 | 5.0 | 11.0 | 0.00 | 0.00 | 0.00 | 53 | 1016.4 |
| 20260501185538 | 66 | 353 | 4.0 | 9.0 | 0.00 | 0.00 | 0.00 | 56 | 1016.4 |
| 20260501184536 | 66 | 354 | 5.0 | 8.0 | 0.00 | 0.00 | 0.00 | 57 | 1016.6 |
| 20260501183534 | 65 | 4 | 4.0 | 6.0 | 0.00 | 0.00 | 0.00 | 57 | 1016.7 |
| 20260501182533 | 65 | 337 | 2.0 | 4.0 | 0.00 | 0.00 | 0.00 | 58 | 1016.6 |
| 20260501181611 | 65 | 1 | 4.0 | 7.0 | 0.00 | 0.00 | 0.00 | 59 | 1016.7 |
| 20260501180529 | 64 | 333 | 1.0 | 2.0 | 0.00 | 0.00 | 0.00 | 62 | 1016.8 |